Location: Bogis-Bossey
(46.3500°N, 6.1667°E)
Time: 23:37:08
(UTC+00:00)

USA 238 DEB - Pass Details

Date: 03 March 2024
Orbit: 948 x 1263 km, 63.4° (Epoch: 09 April)

Event Time Altitude Azimuth Distance (km) Brightness Sun altitude
Exits shadow 04:58:22 15° 287° (WNW) 2,430 5.0 -13.2°
Maximum altitude 05:02:31 27° 335° (NNW) 1,891 4.8 -12.5°
Drops below altitude 10° 05:08:22 10° 32° (NNE) 2,976 6.5 -11.5°
Sets 05:11:39 0° 44° (NE) 3,992 7.5 -10.9°
